Location: ?
(35.6381°N, 139.5259°E)
Time: 05:20:06
(UTC+00:00)

Daily predictions for brighter satellites

Satellite Brightness Start Highest point End
(mag) Time Altitude Azimuth Time Altitude Azimuth Time Altitude Azimuth
Cosmos 1626 4.3 08:21:28 10° SW 08:24:42 29° WNW 08:27:57 10° NNW
CORIOLIS 4.3 08:25:19 10° SSE 08:30:44 83° WSW 08:36:09 10° NNW
Cosmos 2263 Rocket 4.0 08:29:10 10° WSW 08:34:03 29° WNW 08:38:56 10° N
Lacrosse 5 3.4 08:31:47 10° N 08:35:10 18° NNE 08:38:22 11° ENE
NOAA 11 4.4 08:33:06 10° S 08:38:36 78° WSW 08:44:07 10° NNW
H-2A R/B 3.9 08:35:05 10° S 08:38:50 41° W 08:42:43 10° NNW
COSMO-SKYMED 1 2.5 08:35:58 10° NNE 08:40:18 69° E 08:44:37 10° S
SAR-Lupe-4 4.4 08:41:32 10° NE 08:44:44 30° E 08:47:55 10° SSE
CZ-2D R/B 3.5 08:42:15 10° SSE 08:45:57 45° ENE 08:49:38 10° N
BREEZE-M DEB (TANK) 2.2 08:43:20 10° NW 08:46:07 43° NNE 08:47:55 13° ESE
ARGOS 4.3 08:44:32 10° ESE 08:48:18 20° ENE 08:52:05 10° NNE
Okean-O 3.5 08:45:08 10° SE 08:48:50 27° ENE 08:52:34 10° NNE
Okean O Rocket 2.6 08:46:10 10° S 08:50:30 51° W 08:54:50 10° NNW
X-37B 1.7 08:50:55 10° W 08:53:53 36° NNW 08:56:04 16° NE
CZ-3B R/B 4.2 08:53:11 10° NNE 08:55:30 15° NE 08:56:08 15° ENE
SAR-Lupe-1 4.4 08:52:07 10° NNE 08:55:32 42° E 08:58:55 10° S
Nadezhda 4 Rocket 4.0 08:49:35 10° S 08:55:47 68° E 09:01:58 10° NNE
IRS-1C Rocket 4.1 08:56:18 10° SSE 09:01:27 61° ENE 09:06:38 10° N
Cosmos 1943 4.5 08:57:10 10° NW 09:02:31 44° WSW 09:07:49 10° S
CZ-2C R/B 3.7 08:59:13 13° NE 09:03:04 25° E 09:07:34 10° SSE
Cosmos 1602 Rocket 4.1 08:59:12 10° SSE 09:03:04 33° E 09:06:43 11° NNE
Helios 1A Rocket 3.8 09:00:09 10° SE 09:03:40 28° ENE 09:07:12 10° NNE
YAOGAN 1 2.9 09:02:56 10° SE 09:06:58 40° ENE 09:11:01 10° N
Cosmos 1844 3.7 09:02:17 10° SSW 09:07:54 86° ESE 09:13:38 10° NNE
Meteor 2-13 Rocket 4.4 09:03:32 10° S 09:09:37 86° E 09:15:47 10° N
ISS -1.8 09:09:51 10° W 09:12:37 23° NNW 09:14:36 14° NNE
COSMOS 2455 4.2 09:09:19 10° SW 09:14:52 38° WNW 09:20:27 10° N
NOSS 2-1 (E) 3.0 09:14:15 10° SSW 09:17:39 52° ESE 09:18:30 39° ENE
Cosmos 1455 2.1 09:14:35 10° N 09:18:23 65° E 09:22:12 10° SSE
Cosmos 1340 3.0 09:15:04 10° SSE 09:18:34 39° E 09:19:12 36° ENE
H-2A R/B 2.0 09:14:53 10° SSE 09:19:41 54° ENE 09:24:36 10° N
CZ-2C R/B 3.2 09:15:53 10° S 09:21:03 80° WSW 09:26:35 10° NNW
Cosmos 923 Rocket 4.3 09:17:41 10° N 09:22:47 44° ENE 09:27:50 10° SE
Cosmos 1703 3.1 09:19:06 10° S 09:22:56 68° E 09:25:50 17° NNE
Cosmos 158 Rocket 4.2 09:18:02 10° N 09:23:14 50° ENE 09:28:28 10° SE
Cosmos 1898 Rocket 3.6 09:18:20 10° S 09:23:28 55° ESE 09:26:53 21° NNE
SJ 16-02 2.2 09:19:43 10° SSW 09:24:00 51° WNW 09:28:18 10° N
Cosmos 1844 Rocket 3.5 09:22:27 10° SW 09:27:56 50° WNW 09:33:25 10° N
Cosmos 1680 Rocket 3.9 09:25:03 10° N 09:29:54 38° ENE 09:30:52 35° E
Cosmos 2098 Rocket 4.4 09:25:24 10° SSE 09:31:56 51° E 09:39:04 10° NNE
ERS-2 3.5 09:29:17 10° N 09:32:40 37° WNW 09:36:01 10° SW
Cosmos 2026 Rocket 3.9 09:26:47 10° S 09:32:43 61° E 09:38:47 10° NNE
Cosmos 2278 Rocket 3.0 09:33:37 10° SSE 09:37:49 30° ESE 09:37:49 30° ESE
SJ-11-01 4.1 09:34:52 10° SSE 09:39:33 80° ENE 09:44:15 10° N
Cosmos 1689 Rocket 3.8 09:38:36 17° NNW 09:40:16 31° WNW 09:42:49 10° SW
Iridium 4 Rocket 3.4 09:42:16 10° N 09:47:50 74° E 09:52:55 10° S
CSL-04 Rocket 3.5 09:45:07 10° SSE 09:50:27 71° ENE 09:55:53 10° N
Cosmos 1328 3.9 09:46:49 10° SSW 09:50:49 73° W 09:52:02 43° N
NOSS 3-1 (C) 4.5 09:46:07 10° NNW 09:53:20 41° NE 09:54:30 39° ENE
CZ-4 R/B 2.6 09:49:47 10° S 09:53:42 42° W 09:57:35 10° NNW
Cosmos 1937 Rocket 3.4 09:52:24 10° SSW 09:57:40 84° ESE 09:59:03 51° NNE
Hubble Space Telescope 2.2 09:58:40 10° WSW 10:01:59 29° S 10:01:59 29° S
Meteor 2-8 Rocket 4.3 09:56:38 10° N 10:02:45 87° E 10:08:52 10° S
Cosmos 44 4.2 09:58:44 10° SW 10:03:12 44° NW 10:05:05 30° N
Meteor 2-15 4.4 09:57:09 10° N 10:08:50 12° SSE 10:09:16 10° SSE
Milstar 3 4.4 10:00:55 10° SSW 10:06:06 18° SSE 10:07:00 18° SSE
Cosmos 2112 Rocket 4.3 10:02:24 10° NNW 10:06:24 52° N 10:06:24 52° N
USA 267 3.2 10:10:28 48° NE 10:12:31 81° NW 10:19:03 10° SW
DMSP B5D2-2 4.4 10:14:03 53° S 10:14:03 53° S 10:18:04 10° S
Lacrosse 5 2.3 10:13:40 10° NW 10:17:38 56° NW 10:17:38 56° NW
Centaur D-1AR AC-48 3.9 10:18:58 10° WSW 10:24:39 20° SSW 10:25:21 20° S
ARGOS 4.1 10:23:03 10° S 10:28:11 46° W 10:33:20 10° NNW
CZ-2C R/B 3.9 10:40:43 24° NNW 10:43:22 39° WNW 10:48:30 10° SW
Cosmos 2278 Rocket 4.3 11:17:30 10° WSW 11:19:45 21° WSW 11:19:45 21° WSW
